User: anonymous   Login
Location: Acheville
(50.3840°N, 2.8827°E)
Time: 01:26:30
(UTC+00:00)
Language:

FENGYUN 1C DEB - Orbit

View from above orbital plane
View from above orbital plane
View from above satellite
View from above satellite

Ground track
Ground track

The orbit data is extracted from the following two-line orbital elements,

1 31766U 99025CFR 23031.76965662  .00000269  00000-0  19123-3 0  9990
2 31766  98.8190  48.8212 0074744 341.6331  18.2141 14.04359299494002
Epoch (UTC): 31 January 2023 18:28:18
Eccentricity: 0.0074744
inclination: 98.8190°
perigee height: 824 km
apogee height: 933 km
right ascension of ascending node: 48.8212°
argument of perigee: 341.6331°
revolutions per day: 14.04359299
mean anomaly at epoch: 18.2141°
orbit number at epoch: 49400

The dashed part of the orbit path shows where the satellite is in the earth's shadow,  

DLR